TimeEST,TemperatureF,Dew PointF,Humidity,Sea Level PressureIn,VisibilityMPH,Wind Direction,Wind SpeedMPH,Gust SpeedMPH,PrecipitationIn,Events,Conditions,WindDirDegrees,DateUTC
12:00 AM,10.4,3.2,73,30.06,10.0,WNW,8.1,18.4,N/A,,Mostly Cloudy,290,2013-02-18 05:00:00
12:20 AM,10.4,3.2,73,30.06,10.0,WNW,11.5,17.3,N/A,,Scattered Clouds,290,2013-02-18 05:20:00
12:40 AM,8.6,3.2,79,30.06,10.0,West,8.1,-,N/A,,Clear,280,2013-02-18 05:40:00
1:00 AM,8.6,3.2,79,30.06,10.0,WNW,9.2,-,N/A,,Clear,290,2013-02-18 06:00:00
1:20 AM,8.6,3.2,79,30.07,10.0,WNW,8.1,-,N/A,,Clear,290,2013-02-18 06:20:00
2:00 AM,8.6,3.2,79,30.08,10.0,West,5.8,-,N/A,,Clear,270,2013-02-18 07:00:00
2:20 AM,8.6,3.2,79,30.08,10.0,West,6.9,-,N/A,,Clear,280,2013-02-18 07:20:00
2:40 AM,8.6,3.2,79,30.07,10.0,West,9.2,-,N/A,,Clear,280,2013-02-18 07:40:00
3:00 AM,8.6,3.2,79,30.07,10.0,West,10.4,-,N/A,,Clear,280,2013-02-18 08:00:00
3:20 AM,8.6,3.2,79,30.06,10.0,West,9.2,17.3,N/A,,Clear,280,2013-02-18 08:20:00
3:40 AM,8.6,3.2,79,30.06,10.0,West,9.2,17.3,N/A,,Clear,280,2013-02-18 08:40:00
4:00 AM,8.6,3.2,79,30.07,10.0,West,10.4,-,N/A,,Clear,280,2013-02-18 09:00:00
4:20 AM,8.6,3.2,79,30.08,10.0,West,10.4,-,N/A,,Clear,280,2013-02-18 09:20:00
4:40 AM,8.6,3.2,79,30.08,10.0,West,9.2,-,N/A,,Clear,270,2013-02-18 09:40:00
5:00 AM,8.6,3.2,79,30.09,10.0,West,9.2,16.1,N/A,,Clear,270,2013-02-18 10:00:00
5:20 AM,8.6,3.2,79,30.09,10.0,West,8.1,-,N/A,,Clear,270,2013-02-18 10:20:00
5:40 AM,8.6,3.2,79,30.10,10.0,West,6.9,-,N/A,,Clear,280,2013-02-18 10:40:00
6:20 AM,8.6,3.2,79,30.11,10.0,West,6.9,-,N/A,,Clear,260,2013-02-18 11:20:00
6:40 AM,8.6,3.2,79,30.11,10.0,West,6.9,-,N/A,,Clear,260,2013-02-18 11:40:00
7:20 AM,8.6,3.2,79,30.13,10.0,WSW,4.6,-,N/A,,Clear,240,2013-02-18 12:20:00
7:40 AM,8.6,3.2,79,30.13,10.0,SW,6.9,-,N/A,,Clear,230,2013-02-18 12:40:00
8:00 AM,10.4,3.2,73,30.14,10.0,SW,6.9,-,N/A,,Clear,230,2013-02-18 13:00:00
8:20 AM,12.2,5.0,73,30.14,10.0,SW,5.8,-,N/A,,Clear,230,2013-02-18 13:20:00
8:40 AM,14.0,5.0,67,30.15,10.0,SSW,6.9,-,N/A,,Clear,210,2013-02-18 13:40:00
9:00 AM,15.8,5.0,62,30.15,10.0,SSW,8.1,-,N/A,,Clear,210,2013-02-18 14:00:00
9:20 AM,17.6,5.0,58,30.15,10.0,SSW,5.8,-,N/A,,Clear,200,2013-02-18 14:20:00
9:40 AM,19.4,5.0,54,30.15,10.0,South,5.8,-,N/A,,Clear,190,2013-02-18 14:40:00
10:00 AM,21.2,5.0,50,30.15,10.0,SSW,6.9,-,N/A,,Clear,200,2013-02-18 15:00:00
10:20 AM,23.0,1.4,39,30.14,10.0,SSW,8.1,-,N/A,,Clear,200,2013-02-18 15:20:00
10:40 AM,24.8,3.2,40,30.15,10.0,SSW,11.5,-,N/A,,Clear,210,2013-02-18 15:40:00
11:00 AM,26.6,3.2,37,30.15,10.0,SSW,9.2,-,N/A,,Clear,210,2013-02-18 16:00:00
11:20 AM,28.4,5.0,37,30.14,10.0,South,8.1,-,N/A,,Clear,190,2013-02-18 16:20:00
11:40 AM,30.2,5.0,34,30.13,10.0,South,5.8,-,N/A,,Clear,190,2013-02-18 16:40:00
12:00 PM,30.2,6.8,37,30.13,10.0,South,8.1,-,N/A,,Clear,180,2013-02-18 17:00:00
12:20 PM,32.0,8.6,38,30.12,10.0,South,8.1,-,N/A,,Clear,190,2013-02-18 17:20:00
12:40 PM,33.8,8.6,35,30.11,10.0,SSW,10.4,-,N/A,,Clear,200,2013-02-18 17:40:00
1:00 PM,33.8,10.4,38,30.10,10.0,SSW,9.2,-,N/A,,Clear,210,2013-02-18 18:00:00
1:20 PM,35.6,12.2,38,30.09,10.0,SSW,9.2,-,N/A,,Clear,210,2013-02-18 18:20:00
1:40 PM,35.6,14.0,41,30.08,10.0,SSW,13.8,17.3,N/A,,Clear,200,2013-02-18 18:40:00
2:00 PM,37.4,15.8,41,30.08,10.0,SSW,8.1,-,N/A,,Clear,210,2013-02-18 19:00:00
2:20 PM,37.4,17.6,45,30.06,10.0,South,13.8,-,N/A,,Clear,190,2013-02-18 19:20:00
2:40 PM,39.2,19.4,45,30.06,10.0,SSW,12.7,-,N/A,,Clear,200,2013-02-18 19:40:00
3:00 PM,39.2,19.4,45,30.05,10.0,South,8.1,-,N/A,,Clear,190,2013-02-18 20:00:00
3:20 PM,39.2,21.2,49,30.06,10.0,SSW,9.2,-,N/A,,Clear,200,2013-02-18 20:20:00
3:40 PM,39.2,21.2,49,30.05,10.0,South,10.4,-,N/A,,Clear,190,2013-02-18 20:40:00
4:00 PM,39.2,21.2,49,30.05,10.0,South,10.4,-,N/A,,Clear,190,2013-02-18 21:00:00
4:20 PM,39.2,23.0,52,30.05,10.0,South,10.4,17.3,N/A,,Clear,190,2013-02-18 21:20:00
4:40 PM,39.2,23.0,52,30.05,10.0,South,11.5,-,N/A,,Clear,190,2013-02-18 21:40:00
5:00 PM,39.2,23.0,52,30.04,10.0,South,11.5,-,N/A,,Clear,180,2013-02-18 22:00:00
5:20 PM,37.4,24.8,60,30.04,10.0,South,11.5,-,N/A,,Clear,180,2013-02-18 22:20:00
5:40 PM,37.4,24.8,60,30.04,10.0,South,12.7,-,N/A,,Clear,180,2013-02-18 22:40:00
6:00 PM,37.4,24.8,60,30.04,10.0,South,10.4,-,N/A,,Clear,180,2013-02-18 23:00:00
6:20 PM,37.4,26.6,65,30.03,10.0,South,10.4,-,N/A,,Clear,170,2013-02-18 23:20:00
7:00 PM,33.8,21.2,60,30.02,10.0,SSE,11.5,-,N/A,,Clear,150,2013-02-19 00:00:00
7:40 PM,33.8,21.2,60,30.02,10.0,SSE,13.8,-,N/A,,Clear,150,2013-02-19 00:40:00
8:00 PM,35.6,23.0,60,30.01,10.0,SSE,11.5,-,N/A,,Clear,160,2013-02-19 01:00:00
8:20 PM,33.8,23.0,65,30.00,10.0,SSE,12.7,-,N/A,,Clear,160,2013-02-19 01:20:00
8:40 PM,35.6,23.0,60,29.99,10.0,SSE,11.5,-,N/A,,Clear,160,2013-02-19 01:40:00
9:00 PM,33.8,23.0,65,29.99,10.0,SSE,11.5,-,N/A,,Clear,150,2013-02-19 02:00:00
9:20 PM,33.8,21.2,60,29.99,10.0,SSE,10.4,-,N/A,,Clear,150,2013-02-19 02:20:00
9:40 PM,33.8,21.2,60,29.98,10.0,SSE,11.5,-,N/A,,Clear,150,2013-02-19 02:40:00
10:20 PM,33.8,21.2,60,29.98,10.0,SSE,11.5,-,N/A,,Clear,160,2013-02-19 03:20:00
10:40 PM,33.8,23.0,65,29.97,10.0,SSE,10.4,-,N/A,,Clear,160,2013-02-19 03:40:00
11:00 PM,33.8,23.0,65,29.96,10.0,SSE,9.2,-,N/A,,Clear,160,2013-02-19 04:00:00
11:20 PM,33.8,23.0,65,29.95,10.0,SSE,10.4,-,N/A,,Clear,160,2013-02-19 04:20:00
11:40 PM,35.6,23.0,60,29.93,10.0,South,13.8,-,N/A,,Clear,170,2013-02-19 04:40:00